Theta_e
327 327 326 325 325 328 327 327 325 322 317 317 314 312 306 303 302 300 298 297 297 296 296 296 296 295 295 294 294 294 294 294 293 293 293 293 291 289 288 287 287 286 284
319 319 319 321 325 327 327 326 322 318 317 316 313 311 304 302 302 300 298 297 296 296 296 296 296 295 295 294 294 294 294 293 293 293 293 292 291 290 288 287 287 285 283
316 318 321 325 326 326 325 322 318 317 316 315 312 310 303 302 302 300 298 297 296 296 296 296 296 295 295 295 294 294 294 293 293 293 292 292 291 290 288 287 286 284 283
321 325 325 325 325 324 320 318 316 315 315 313 312 309 302 303 302 300 298 297 296 296 295 296 296 296 295 295 295 294 294 293 292 292 292 291 291 290 288 286 286 284 282
323 323 323 321 319 317 317 316 314 313 313 312 312 307 303 302 302 300 299 297 297 296 295 295 296 295 295 294 294 294 294 293 292 292 292 291 290 289 288 286 285 283 281
320 320 320 319 318 317 315 313 312 312 313 312 311 306 302 302 302 301 299 297 297 296 295 295 295 295 294 294 294 295 294 293 292 292 291 291 290 289 288 286 284 283 280
318 318 317 316 315 313 312 311 311 312 313 312 311 304 303 302 301 301 300 298 297 296 296 295 295 295 294 294 295 294 294 293 292 291 291 290 289 289 288 286 284 282 280
314 314 313 312 311 311 310 310 311 312 312 311 309 303 302 301 301 300 300 299 299 298 297 296 295 295 294 295 295 294 293 293 292 291 290 289 288 288 288 286 284 282 280
310 310 310 310 310 309 309 309 310 311 311 311 307 302 301 301 301 300 299 299 299 299 298 298 298 296 295 294 293 293 292 293 292 291 290 289 287 286 287 285 284 282 280
309 309 309 309 308 308 308 309 310 310 310 309 304 301 301 301 301 300 300 300 300 300 300 299 298 297 295 294 293 292 292 292 291 290 290 289 288 287 286 286 284 283 279
309 309 309 308 308 308 308 308 309 309 309 308 303 300 301 301 301 301 300 301 300 300 300 300 299 297 295 294 292 292 291 290 291 290 289 288 287 287 286 285 284 283 280
309 308 308 308 308 308 307 307 307 307 307 306 302 300 300 301 300 300 300 300 300 300 300 299 298 296 295 293 292 291 290 289 290 289 289 288 287 286 285 284 284 283 282
308 308 308 308 308 307 306 305 305 304 304 303 301 300 300 300 300 300 300 301 299 298 298 297 297 296 295 293 292 290 289 288 288 288 288 288 286 285 284 284 284 283 282
308 308 307 308 308 307 306 305 304 303 303 302 301 300 300 301 302 302 299 298 297 296 296 296 295 295 294 293 293 291 289 288 286 285 284 284 284 284 283 283 283 282 281
307 307 307 307 307 306 305 305 304 303 302 302 301 301 302 301 299 298 296 295 294 294 294 294 293 293 293 292 292 291 289 285 284 284 284 284 284 283 283 282 281 281 280
306 307 307 306 305 304 304 303 303 302 301 301 302 300 298 297 295 295 296 296 296 295 294 292 292 291 290 288 287 287 286 284 285 285 284 283 283 282 282 282 281 281 280
305 306 305 304 304 304 303 303 302 301 299 298 297 295 295 295 296 296 296 295 294 293 293 292 291 290 288 286 286 286 286 286 285 284 284 283 283 282 282 282 281 281 281
303 304 304 304 303 301 299 298 297 296 295 295 296 296 295 294 294 294 293 294 294 294 292 290 288 286 286 286 286 286 286 285 284 284 283 283 283 282 281 281 281 281 281
301 300 299 298 298 296 295 295 296 296 296 296 296 295 295 294 294 293 293 293 292 291 289 287 286 285 285 285 285 284 284 284 283 283 282 282 282 281 281 281 280 280 280
296 295 295 295 295 296 295 294 294 294 293 293 292 292 291 291 291 290 290 289 288 287 287 287 287 286 286 285 284 284 283 283 282 281 281 281 280 280 280 280 280 279 279
294 294 293 293 292 293 292 292 292 291 291 290 290 290 289 289 289 288 288 287 286 285 285 285 285 285 285 285 284 284 283 283 282 281 281 280 279 279 279 279 278 278 278
292 292 292 292 291 291 290 290 290 290 289 289 289 288 288 288 288 287 286 285 284 284 284 283 283 283 283 283 282 282 282 282 281 281 280 280 279 279 278 278 277 277 277
290 290 290 290 290 290 290 289 289 288 288 288 288 287 287 286 285 284 283 283 282 283 282 282 283 283 282 281 281 281 281 281 281 281 280 279 279 278 278 277 277 276 276
291 291 290 290 289 288 288 288 288 287 287 287 286 285 285 284 283 283 283 283 283 283 283 283 283 283 282 282 281 281 281 281 280 280 280 279 279 278 277 276 276 275 274
292 290 289 288 288 288 287 286 286 286 285 285 284 283 283 283 283 283 283 283 283 283 283 283 282 282 282 282 281 281 281 281 281 280 280 279 279 278 277 275 275 274 273
288 288 287 287 286 286 285 285 285 284 284 283 283 283 283 282 283 283 283 283 282 282 282 282 281 281 281 281 281 281 281 281 281 281 280 279 278 278 276 275 274 273 272
Wind_Speed
38 36 34 32 27 27 30 29 23 22 21 20 19 20 20 18 15 14 14 13 11 10 9 7 6 6 5 6 7 8 8 9 12 15 16 18 19 20 18 16 14 14 13
35 33 30 26 27 30 29 27 25 22 21 20 20 21 20 18 15 15 16 13 12 12 10 9 9 7 7 7 7 9 11 12 14 17 18 19 19 19 18 18 16 14 15
32 27 25 27 29 29 27 26 23 23 22 20 21 21 20 18 16 17 16 14 13 13 12 12 11 10 9 9 9 11 12 13 15 17 17 19 20 20 18 18 17 17 16
25 25 27 29 27 27 27 25 24 23 22 21 21 21 19 18 17 17 16 16 15 15 15 14 13 13 12 11 11 13 15 15 17 18 18 20 20 20 19 19 19 18 17
27 28 26 25 26 27 26 25 25 23 21 21 21 21 21 19 18 17 17 17 17 17 16 17 17 17 15 13 14 15 16 18 19 20 20 20 21 21 21 20 20 19 19
28 26 26 27 27 26 25 25 23 23 22 22 22 22 21 19 18 17 17 18 19 19 19 19 20 19 18 16 17 20 20 20 21 22 21 22 21 22 22 21 21 22 23
26 27 27 26 26 25 24 24 23 23 23 23 24 23 21 20 18 17 18 19 20 21 22 23 23 22 21 20 21 23 22 23 24 24 24 23 24 23 23 23 23 23 23
26 27 26 26 25 25 24 23 23 24 24 24 23 23 22 20 19 17 17 18 21 22 25 25 26 25 25 24 27 27 24 24 24 24 25 24 25 25 24 24 23 24 25
27 28 26 24 26 25 24 23 23 24 24 24 24 23 22 20 18 16 17 19 21 23 25 26 27 27 25 26 29 28 25 26 25 25 26 25 25 25 26 24 24 25 27
28 26 23 25 23 21 21 22 23 23 23 24 24 24 21 19 18 17 19 20 22 23 25 27 26 25 26 29 29 27 30 27 25 27 29 27 27 26 26 24 24 26 26
24 22 23 23 20 20 20 21 21 22 23 25 25 23 20 18 19 20 21 22 23 24 26 27 26 25 26 26 28 29 29 27 28 30 31 30 29 27 27 24 24 25 26
24 23 24 22 21 20 21 21 22 22 23 24 24 22 20 19 20 21 24 24 24 25 26 25 24 23 25 25 26 28 28 28 30 31 31 30 29 27 25 25 25 26 28
24 25 23 21 21 21 22 22 22 21 22 22 22 21 20 20 21 23 23 23 23 24 23 22 23 23 24 24 25 26 27 29 33 33 31 29 28 27 26 26 27 27 27
24 24 23 22 23 22 21 21 21 20 20 20 21 21 20 22 21 22 21 20 21 22 23 23 23 23 25 25 26 25 27 29 32 34 34 32 30 30 31 29 30 30 32
22 23 23 22 21 20 19 18 18 17 18 18 19 19 19 18 19 19 19 20 21 22 24 23 22 24 25 25 25 25 25 23 27 31 32 33 33 33 33 32 33 34 37
20 22 21 20 18 17 16 16 17 17 16 15 15 15 15 17 19 20 20 21 22 21 21 20 21 21 21 24 24 23 23 22 22 23 25 28 31 32 33 34 35 37 39
17 17 16 15 14 13 14 15 15 13 11 11 12 14 15 16 17 18 17 17 18 18 18 18 17 16 16 18 19 20 21 22 22 24 24 26 28 31 33 34 34 35 38
15 15 14 13 12 11 11 11 11 11 11 10 11 12 12 12 13 13 14 16 15 15 14 14 14 15 17 18 20 23 22 23 23 24 26 27 29 30 33 34 36 37 37
14 14 13 12 12 12 12 12 10 10 9 9 9 10 9 10 10 11 13 13 13 12 12 13 14 15 15 19 23 24 23 24 23 26 28 28 29 31 34 35 36 37 37
11 11 10 10 10 10 9 8 6 6 6 6 6 7 7 7 7 9 12 13 12 12 13 14 15 16 15 17 21 22 22 24 27 29 28 28 29 30 33 34 35 36 38
10 10 8 7 7 6 6 6 4 5 6 7 7 7 8 9 9 9 10 12 13 14 15 14 14 15 16 17 19 21 23 24 25 25 26 28 29 32 32 34 35 36 37
8 7 6 5 5 4 3 4 6 7 6 6 7 7 9 10 10 10 10 11 12 13 14 15 15 15 15 16 18 19 21 22 23 24 27 29 31 32 33 34 35 36 36
5 4 2 4 5 5 5 5 5 5 6 7 7 8 9 10 9 8 8 8 10 10 12 12 13 14 14 16 17 19 21 22 23 24 26 29 31 33 34 35 36 37 37
3 6 5 6 6 4 4 4 5 6 7 8 8 7 6 5 5 5 6 7 8 9 11 13 14 16 16 17 18 19 21 22 24 25 26 28 30 31 32 34 35 36 36
9 10 7 6 5 5 5 7 6 7 6 5 3 2 2 3 4 5 7 8 8 10 12 14 15 16 18 19 20 21 23 24 25 26 28 29 30 30 31 32 33 33 34
10 8 7 6 5 5 5 5 4 3 1 2 3 2 4 4 5 6 7 8 9 12 14 15 17 19 20 22 23 24 25 27 28 29 30 30 30 31 31 32 32 32 32
Wind_Direction
220 226 227 228 227 218 221 220 226 229 228 226 225 223 220 218 216 219 221 224 230 237 243 255 272 291 304 313 317 320 318 310 305 307 312 318 320 318 315 308 299 295 294
222 225 222 221 212 211 218 221 224 226 227 224 223 220 218 217 219 222 225 230 232 241 247 257 271 280 292 303 312 321 316 317 308 308 313 316 318 318 313 308 301 293 292
219 215 209 205 208 210 216 223 226 228 227 224 221 219 218 219 223 227 228 233 238 244 251 259 267 280 290 297 308 316 314 312 304 307 309 311 313 315 312 304 297 294 295
206 201 204 204 207 214 221 226 228 229 227 224 221 220 219 223 228 231 233 239 246 253 256 261 268 275 280 290 302 309 312 309 303 306 306 305 307 310 310 305 298 294 295
200 203 204 208 213 219 223 227 228 227 226 222 220 219 220 226 231 236 240 245 251 257 262 264 269 273 278 288 294 301 304 301 299 303 304 302 303 304 307 305 297 293 297
207 208 210 214 218 223 227 228 228 226 222 219 219 221 224 229 236 242 246 251 256 262 266 269 270 274 279 285 292 293 295 297 296 298 300 299 299 298 302 302 296 294 295
212 214 217 220 223 224 225 227 227 225 221 219 219 221 226 233 240 246 251 256 262 267 271 271 274 278 281 284 286 285 287 292 294 294 297 299 293 297 296 295 293 289 290
217 218 219 220 223 224 225 225 223 221 221 222 222 223 230 237 245 252 257 261 266 270 272 276 280 281 282 284 284 281 283 286 288 291 293 292 289 291 290 290 290 286 286
219 220 218 219 223 224 225 223 221 220 222 223 222 226 234 242 252 256 261 265 269 272 279 283 287 287 286 281 278 281 285 285 288 289 289 287 285 284 286 286 287 284 285
220 219 219 223 225 228 226 223 222 223 225 225 226 231 238 248 256 261 263 269 275 282 289 289 288 288 285 285 285 286 283 291 289 287 288 288 286 285 282 285 284 281 277
228 222 221 223 223 224 223 224 225 226 227 228 230 236 244 253 261 267 273 277 284 287 287 289 293 290 285 282 285 284 288 286 286 285 285 287 287 287 286 287 286 280 274
226 221 219 219 218 219 222 225 227 229 232 235 236 241 248 257 267 273 278 285 286 287 292 294 292 287 281 281 282 285 287 284 285 285 287 289 292 293 291 287 285 281 278
219 218 216 215 218 219 222 226 231 233 237 239 241 246 253 262 268 274 278 280 286 292 292 292 291 288 283 282 282 284 284 283 287 288 291 293 296 294 287 285 286 285 282
219 216 213 214 218 221 224 229 233 236 240 243 244 249 258 261 267 271 276 287 290 292 295 292 288 287 284 284 285 283 281 283 286 291 296 299 297 294 292 291 288 288 285
213 210 211 215 219 222 225 233 239 239 239 239 244 248 257 263 267 276 285 289 292 293 291 289 287 286 286 287 291 291 289 285 278 285 293 295 293 290 291 291 288 284 283
208 205 208 212 214 219 222 229 232 229 228 232 239 248 259 270 277 283 288 289 290 291 292 291 290 289 290 291 296 297 299 303 302 299 295 294 293 294 293 291 286 283 283
196 197 196 198 202 206 208 210 214 218 226 243 255 262 269 276 282 288 291 294 296 295 293 291 294 300 302 303 308 311 309 307 306 304 303 300 297 293 292 291 290 288 286
168 172 176 179 183 191 203 213 225 234 237 242 254 267 274 282 288 295 302 303 298 293 302 304 307 310 312 312 308 307 306 305 304 303 301 299 298 298 294 293 292 292 292
159 163 169 180 193 204 214 220 222 232 238 247 252 259 270 285 307 314 308 298 293 292 285 284 288 289 302 310 309 306 305 304 305 303 303 302 300 298 297 297 296 296 296
169 179 185 189 195 200 207 216 225 240 249 258 272 281 285 293 302 305 306 308 302 297 300 307 307 307 301 290 287 289 289 292 295 299 301 301 300 298 296 297 297 296 296
164 166 168 179 192 200 214 224 241 259 273 280 287 291 304 309 318 311 308 307 307 307 309 309 309 311 311 308 300 295 293 295 297 300 301 300 299 298 298 297 297 298 299
156 164 172 193 216 218 243 268 274 276 287 290 293 300 304 311 311 310 312 313 314 315 317 319 324 325 324 319 313 310 308 307 306 303 300 299 300 300 300 299 298 298 298
177 180 192 248 260 266 271 272 281 285 281 290 294 302 307 308 308 316 324 334 331 335 333 335 341 339 338 332 326 320 317 317 314 310 305 301 300 300 301 300 300 300 300
327 290 275 267 267 271 274 275 278 283 290 296 302 306 305 314 334 4 11 14 2 358 352 351 353 350 346 340 335 331 327 323 319 316 312 308 305 303 301 300 300 300 301
254 260 259 252 255 269 279 280 288 290 293 298 302 311 46 52 44 38 31 24 12 5 359 356 351 348 345 342 339 335 331 329 327 323 318 312 308 306 304 303 303 303 303
252 238 230 238 252 268 277 270 264 260 181 131 114 97 82 71 55 43 30 19 8 3 358 350 347 345 343 339 336 332 330 328 325 322 319 316 312 310 309 307 305 303 302